Hourly Data Report for September 21, 2017

All times are specified in Local Standard Time (LST). Add 1 hour to adjust for Daylight Saving Time where and when it is observed.

FREDERICTON
NEW BRUNSWICK

45°52'08.000" N
66°32'14.000" W
20.70 m
8101505
71700
YFC

Related Data

No related data is available for this station

Download Data

Hourly Data (September 2017)
Hourly Data Report for September 21, 2017
Temp Definition
°C
Dew Point Temp Definition
°C
Rel Hum Definition
%
Wind Dir Definition
10's deg

Wind Spd Definition
km/h
Visibility Definition
km
Stn Press Definition
kPa
Hmdx Definition


Wind Chill Definition


Weather Definition


TIME
00:00 Legend Double Dagger 18.6 16.3 86 4 18 16.1 101.54     LegendNANA
01:00 Legend Double Dagger 17.2 14.9 86 2 17 16.1 101.57     LegendNANA
02:00 Legend Double Dagger 16.5 14.5 88 1 18 16.1 101.59     LegendNANA
03:00 Legend Double Dagger 15.4 14.3 93 36 15 16.1 101.60     LegendNANA
04:00 Legend Double Dagger 14.2 13.6 96 1 9 12.9 101.63     LegendNANA
05:00 Legend Double Dagger 13.6 12.7 94 1 11 16.1 101.67     LegendNANA
06:00 Legend Double Dagger 13.4 11.3 87 4 13 16.1 101.70     LegendNANA
07:00 Legend Double Dagger 13.2 11.4 89 2 11 16.1 101.77     LegendNANA
08:00 Legend Double Dagger 14.5 9.9 74 2 17 16.1 101.83     LegendNANA
09:00 Legend Double Dagger 16.2 10.0 67 2 22 LegendMM 101.86     LegendNANA
10:00 Legend Double Dagger 17.8 9.1 56 4 21 16.1 101.90     LegendNANA
11:00 Legend Double Dagger 19.8 9.5 51 5 26 16.1 101.87     LegendNANA
12:00 Legend Double Dagger 20.6 8.7 46 5 26 16.1 101.87     LegendNANA
13:00 Legend Double Dagger 21.3 8.6 44 6 22 16.1 101.83     LegendNANA
14:00 Legend Double Dagger 21.9 8.3 41 2 24 16.1 101.79     LegendNANA
15:00 Legend Double Dagger 22.3 8.0 40 5 21 16.1 101.80     LegendNANA
16:00 Legend Double Dagger 21.8 7.1 38 7 22 16.1 101.79     LegendNANA
17:00 Legend Double Dagger 20.7 6.9 40 7 18 16.1 101.82     LegendNANA
18:00 Legend Double Dagger 18.4 7.4 48 6 11 16.1 101.84     LegendNANA
19:00 Legend Double Dagger 15.8 7.6 58 3 11 16.1 101.91     LegendNANA
20:00 Legend Double Dagger 14.3 7.2 62 5 13 16.1 101.96     LegendNANA
21:00 Legend Double Dagger 12.6 6.7 67 4 13 16.1 101.97     LegendNANA
22:00 Legend Double Dagger 11.1 6.5 73 5 9 16.1 102.03     LegendNANA
23:00 Legend Double Dagger 9.7 6.6 81 3 5 16.1 102.09     LegendNANA

Notes on Data Quality.

Legend

  • E = Estimated
  • M = Missing
  • NA = Not Available
  • ‡ = Partner data that is not subject to review by the National Climate Archives
Date modified: